Location: Rancho Del Sol Observatory
(38.7214°N, 120.6350°W)
Time: 16:57:28
(UTC-08:00)

A-11 Canister half - Pass Details

Date: 02 February 2020
Orbit: 1517 x 1683 km, 47.2° (Epoch: 20 February)

Event Time Altitude Azimuth Distance (km) Brightness Sun altitude
Exits shadow 02:04:23 12° 96° (E) 3,500 11.1 -57.9°
Drops below altitude 10° 02:04:57 10° 97° (E) 3,679 11.2 -57.8°
Sets 02:08:04 0° 101° (E) 4,668 11.9 -57.3°
